FW3572 Weather Reports


time (UTC)temp
F
wind
direction
speed
knots
gust
knots
rain 1hr
in
rain 24hr
in
rain mn
in
humidity
%
barometer
mb
20260507224553 82 157 8.7 14.8 0.00 0.00 0.00 100 1014.6
20260507224043 82 184 4.3 13.0 0.00 0.00 0.00 100 1014.7
20260507223546 82 126 5.2 11.3 0.00 0.00 0.00 100 1014.6
20260507223042 82 105 6.1 10.4 0.00 0.00 0.00 100 1014.6
20260507222542 82 148 5.2 13.9 0.00 0.00 0.00 100 1014.5
20260507222040 82 136 6.1 13.9 0.00 0.00 0.00 100 1014.6
20260507221542 82 163 7.8 13.0 0.00 0.00 0.00 100 1014.5
20260507221042 82 171 5.2 13.9 0.00 0.00 0.00 100 1014.5
20260507220539 82 134 6.1 13.9 0.00 0.00 0.00 100 1014.7
20260507220039 83 113 4.3 10.4 0.00 0.00 0.00 100 1014.6
20260507215541 83 150 6.1 11.3 0.00 0.00 0.00 100 1014.8
20260507215039 83 141 5.2 11.3 0.00 0.00 0.00 100 1014.7
20260507214540 83 109 3.5 11.3 0.00 0.00 0.00 100 1014.6
20260507214038 83 151 4.3 12.2 0.00 0.00 0.00 100 1014.7
20260507213539 82 137 7.0 12.2 0.00 0.00 0.00 100 1014.6
20260507213041 83 152 7.0 10.4 0.00 0.00 0.00 100 1014.6
20260507212541 83 164 5.2 13.0 0.00 0.00 0.00 100 1014.6
20260507212036 83 128 4.3 13.0 0.00 0.00 0.00 100 1014.6
20260507211537 83 136 4.3 12.2 0.00 0.00 0.00 100 1014.8
20260507211036 84 137 3.5 10.4 0.00 0.00 0.00 100 1014.8
20260507210535 84 121 1.7 10.4 0.00 0.00 0.00 100 1014.9
20260507210043 83 123 4.3 10.4 0.00 0.00 0.00 100 1014.8
20260507205534 83 137 3.5 10.4 0.00 0.00 0.00 100 1015.0
20260507205035 83 158 4.3 12.2 0.00 0.00 0.00 100 1015.0
20260507204533 83 114 4.3 12.2 0.00 0.00 0.00 100 1015.0
20260507204035 83 88 4.3 12.2 0.00 0.00 0.00 100 1015.0
20260507203532 83 147 5.2 11.3 0.00 0.00 0.00 100 1015.1
20260507203036 83 124 4.3 10.4 0.00 0.00 0.00 100 1015.1
20260507202531 83 110 4.3 10.4 0.00 0.00 0.00 100 1015.2
20260507202034 84 112 3.5 10.4 0.00 0.00 0.00 100 1015.3
20260507201531 84 121 5.2 10.4 0.00 0.00 0.00 100 1015.1
20260507201034 84 99 3.5 11.3 0.00 0.00 0.00 100 1015.1
20260507200532 83 146 6.1 11.3 0.00 0.00 0.00 100 1015.1
20260507200030 83 116 5.2 12.2 0.00 0.00 0.00 100 1015.1
20260507195529 84 130 5.2 11.3 0.00 0.00 0.00 100 1015.3
20260507195029 84 161 6.1 10.4 0.00 0.00 0.00 100 1015.3
20260507194550 84 129 6.1 10.4 0.00 0.00 0.00 100 1015.4
20260507194028 85 109 2.6 8.7 0.00 0.00 0.00 100 1015.5
20260507193527 84 140 2.6 8.7 0.00 0.00 0.00 100 1015.6
20260507193029 84 85 1.7 7.8 0.00 0.00 0.00 100 1015.8
20260507192528 85 127 2.6 11.3 0.00 0.00 0.00 100 1015.8
20260507192028 84 106 3.5 12.2 0.00 0.00 0.00 100 1015.6
20260507191533 84 66 3.5 12.2 0.00 0.00 0.00 100 1015.8
20260507191024 84 107 2.6 8.7 0.00 0.00 0.00 100 1015.9
20260507190524 84 152 4.3 8.7 0.00 0.00 0.00 100 1016.0
20260507190024 86 127 0.9 7.0 0.00 0.00 0.00 100 1016.0
20260507185524 86 157 1.7 5.2 0.00 0.00 0.00 100 1016.1
20260507185023 88 73 0.9 9.6 0.00 0.00 0.00 100 1016.1
20260507184528 86 123 1.7 9.6 0.00 0.00 0.00 100 1016.2
20260507184021 86 128 2.6 10.4 0.00 0.00 0.00 100 1016.3
20260507183521 87 167 3.5 10.4 0.00 0.00 0.00 100 1016.4
20260507183033 88 146 4.3 9.6 0.00 0.00 0.00 100 1016.4
20260507182520 87 152 3.5 10.4 0.00 0.00 0.00 100 1016.5
20260507182019 86 141 4.3 10.4 0.00 0.00 0.00 100 1016.6
20260507181520 86 132 2.6 7.8 0.00 0.00 0.00 100 1016.6
20260507181021 87 142 2.6 7.8 0.00 0.00 0.00 100 1016.8
20260507180520 85 123 2.6 8.7 0.00 0.00 0.00 100 1016.8
20260507180029 85 105 4.3 8.7 0.00 0.00 0.00 100 1016.7
20260507175522 85 148 3.5 7.8 0.00 0.00 0.00 100 1016.8
20260507175020 86 119 2.6 8.7 0.00 0.00 0.00 100 1016.8
20260507174518 86 140 4.3 8.7 0.00 0.00 0.00 100 1016.9
20260507174019 85 148 1.7 6.1 0.00 0.00 0.00 100 1016.8
20260507173519 86 76 1.7 7.0 0.00 0.00 0.00 100 1016.8
20260507173028 86 121 4.3 7.0 0.00 0.00 0.00 100 1016.8
20260507172516 88 157 0.9 5.2 0.00 0.00 0.00 100 1016.8
20260507172015 87 269 0.0 6.1 0.00 0.00 0.00 100 1016.8
20260507171531 87 186 0.9 8.7 0.00 0.00 0.00 100 1016.9
20260507171016 87 166 3.5 12.2 0.00 0.00 0.00 100 1016.8
20260507170515 87 157 5.2 11.3 0.00 0.00 0.00 100 1016.9
20260507170014 88 140 3.5 7.0 0.00 0.00 0.00 100 1017.0
20260507165513 89 180 1.7 12.2 0.00 0.00 0.00 100 1017.0
20260507165012 89 175 4.3 12.2 0.00 0.00 0.00 100 1017.0
20260507164512 88 211 2.6 8.7 0.00 0.00 0.00 100 1017.1
20260507164011 88 246 4.3 9.6 0.00 0.00 0.00 100 1017.2
20260507163509 88 230 1.7 9.6 0.00 0.00 0.00 100 1017.2
20260507163010 88 205 4.3 10.4 0.00 0.00 0.00 100 1017.4
20260507162512 88 223 4.3 7.8 0.00 0.00 0.00 100 1017.5
20260507162005 87 147 4.3 7.8 0.00 0.00 0.00 100 1017.5
20260507161503 87 221 1.7 9.6 0.00 0.00 0.00 100 1017.5
20260507161002 87 261 0.9 9.6 0.00 0.00 0.00 100 1017.4
20260507160502 87 180 3.5 7.8 0.00 0.00 0.00 100 1017.5
20260507155558 86 238 1.7 7.8 0.00 0.00 0.00 100 1017.7
20260507155100 86 232 1.7 5.2 0.00 0.00 0.00 100 1017.7
20260507154557 86 175 3.5 6.1 0.00 0.00 0.00 100 1017.7
20260507154055 85 207 0.0 7.0 0.00 0.00 0.00 100 1017.7
20260507153557 85 202 2.6 7.0 0.00 0.00 0.00 100 1017.9
20260507153059 85 172 3.5 8.7 0.00 0.00 0.00 100 1018.0
20260507152554 85 174 3.5 8.7 0.00 0.00 0.00 100 1017.9
20260507152053 83 229 0.0 8.7 0.00 0.00 0.00 100 1018.0
20260507151559 84 238 2.6 8.7 0.00 0.00 0.00 100 1018.1
20260507151054 84 249 1.7 7.8 0.00 0.00 0.00 100 1018.2
20260507150552 84 178 2.6 9.6 0.00 0.00 0.00 100 1018.1
20260507150058 83 214 2.6 7.0 0.00 0.00 0.00 100 1018.1
20260507145551 84 225 1.7 4.3 0.00 0.00 0.00 100 1018.2
20260507145049 83 250 0.9 8.7 0.00 0.00 0.00 100 1018.2
20260507144553 83 233 2.6 8.7 0.00 0.00 0.00 100 1018.2
20260507144050 82 189 1.7 7.0 0.00 0.00 0.00 100 1018.1
20260507143547 82 246 2.6 7.8 0.00 0.00 0.00 100 1018.2
20260507143049 82 200 3.5 10.4 0.00 0.00 0.00 100 1018.3
20260507142547 82 160 0.0 10.4 0.00 0.00 0.00 100 1018.2
20260507142045 81 217 3.5 7.8 0.00 0.00 0.00 100 1018.2
20260507141559 81 237 3.5 9.6 0.00 0.00 0.00 100 1018.1
20260507141048 81 238 2.6 6.1 0.00 0.00 0.00 100 1018.3
20260507140545 81 196 1.7 7.8 0.00 0.00 0.00 100 1018.3
20260507140044 81 232 2.6 7.8 0.00 0.00 0.00 100 1018.3
20260507135544 80 261 1.7 8.7 0.00 0.00 0.00 100 1018.3
20260507135044 80 190 4.3 8.7 0.00 0.00 0.00 100 1018.3
20260507134544 80 231 2.6 7.0 0.00 0.00 0.00 100 1018.4
20260507134041 80 223 2.6 6.1 0.00 0.00 0.00 100 1018.4
20260507133541 80 219 0.9 6.1 0.00 0.00 0.00 100 1018.3
20260507133039 79 230 2.6 6.1 0.00 0.00 0.00 100 1018.2
20260507132539 79 255 1.7 7.8 0.00 0.00 0.00 100 1018.3
20260507132038 79 169 1.7 7.8 0.00 0.00 0.00 100 1018.3
20260507131539 78 216 1.7 7.0 0.00 0.00 0.00 100 1018.4
20260507131037 78 222 0.9 7.0 0.00 0.00 0.00 100 1018.3
20260507130537 78 236 0.9 5.2 0.00 0.00 0.00 100 1018.2
20260507130035 77 198 0.9 5.2 0.00 0.00 0.00 100 1018.2
20260507125537 77 208 0.9 4.3 0.00 0.00 0.00 100 1018.2
20260507125034 77 198 2.6 6.1 0.00 0.00 0.00 100 1018.2
20260507124535 76 237 1.7 6.1 0.00 0.00 0.00 100 1018.3
20260507124037 76 221 0.0 3.5 0.00 0.00 0.00 100 1018.3
20260507123534 76 238 0.9 3.5 0.00 0.00 0.00 100 1018.2
20260507123040 75 248 0.9 2.6 0.00 0.00 0.00 100 1018.2
20260507122534 75 231 0.0 2.6 0.00 0.00 0.00 100 1018.2
20260507122032 75 237 0.9 5.2 0.00 0.00 0.00 100 1018.3
20260507121532 75 178 0.0 4.3 0.00 0.00 0.00 100 1018.3
20260507121032 74 176 1.7 4.3 0.00 0.00 0.00 100 1018.3
20260507120532 73 236 0.0 2.6 0.00 0.00 0.00 100 1018.3
20260507120041 73 237 0.0 2.6 0.00 0.00 0.00 100 1018.4
20260507115532 72 234 0.9 2.6 0.00 0.00 0.00 100 1018.2
20260507115031 72 235 0.0 2.6 0.00 0.00 0.00 100 1018.2
20260507114531 71 237 0.0 2.6 0.00 0.00 0.00 100 1018.2
20260507114030 71 240 0.0 2.6 0.00 0.00 0.00 100 1018.1
20260507112026 70 242 0.0 2.6 0.00 0.00 0.00 100 1017.9
20260507111526 70 242 0.0 2.6 0.00 0.00 0.00 100 1018.1
20260507111026 70 242 0.0 3.5 0.00 0.00 0.00 100 1018.0
20260507110526 69 242 0.9 4.3 0.00 0.00 0.00 100 1017.9
20260507110027 69 254 0.9 4.3 0.00 0.00 0.00 100 1017.9
20260507105523 69 254 1.7 3.5 0.00 0.00 0.00 100 1018.0
20260507105024 69 232 0.9 3.5 0.00 0.00 0.00 100 1017.8
20260507104524 69 241 0.0 0.0 0.00 0.00 0.00 100 1017.6
20260507104025 69 241 0.0 0.0 0.00 0.00 0.00 100 1017.5
20260507103523 69 241 0.0 0.0 0.00 0.00 0.00 100 1017.4
20260507103023 69 247 0.0 0.0 0.00 0.00 0.00 100 1017.5
20260507102523 69 248 0.0 0.0 0.00 0.00 0.00 100 1017.3
20260507102023 69 248 0.0 0.0 0.00 0.00 0.00 100 1017.2
20260507101523 70 248 0.0 0.0 0.00 0.00 0.00 100 1017.1
20260507101022 69 248 0.0 0.0 0.00 0.00 0.00 100 1017.1
20260507100522 69 248 0.0 0.0 0.00 0.00 0.00 100 1016.9
20260507100033 70 248 0.0 0.0 0.00 0.00 0.00 100 1017.0
20260507095522 70 248 0.0 0.0 0.00 0.00 0.00 100 1017.1
20260507095022 70 248 0.0 0.0 0.00 0.00 0.00 100 1017.1
20260507094524 70 248 0.0 0.0 0.00 0.00 0.00 100 1017.1
20260507094022 70 248 0.0 0.0 0.00 0.00 0.00 100 1017.0
20260507093522 70 248 0.0 0.0 0.00 0.00 0.00 100 1016.9
20260507093019 70 248 0.0 0.0 0.00 0.00 0.00 100 1016.9
20260507092524 70 248 0.0 0.0 0.00 0.00 0.00 100 1016.8
20260507092021 70 248 0.0 0.0 0.00 0.00 0.00 100 1016.8
20260507091522 70 248 0.0 0.0 0.00 0.00 0.00 100 1016.8
20260507091021 70 248 0.0 0.9 0.00 0.00 0.00 100 1016.7
20260507090519 70 248 0.0 0.0 0.00 0.00 0.00 100 1016.6
20260507090018 70 248 0.0 0.0 0.00 0.00 0.00 100 1016.5
20260507085521 70 248 0.0 0.0 0.00 0.00 0.00 100 1016.5
20260507085019 70 248 0.0 0.0 0.00 0.00 0.00 100 1016.5
20260507084519 70 248 0.0 0.9 0.00 0.00 0.00 100 1016.4
20260507084017 70 248 0.0 0.9 0.00 0.00 0.00 100 1016.4
20260507083518 70 248 0.0 0.9 0.00 0.00 0.00 100 1016.4
20260507083018 70 248 0.0 0.9 0.00 0.00 0.00 100 1016.5
20260507082518 70 248 0.0 0.9 0.00 0.00 0.00 100 1016.4
20260507082017 70 248 0.0 0.0 0.00 0.00 0.00 100 1016.4
20260507081517 70 248 0.0 0.0 0.00 0.00 0.00 100 1016.4
20260507081018 71 248 0.0 0.0 0.00 0.00 0.00 100 1016.5
20260507080518 71 248 0.0 0.0 0.00 0.00 0.00 100 1016.5
20260507080017 71 248 0.0 1.7 0.00 0.00 0.00 100 1016.4
20260507075516 71 248 0.0 0.0 0.00 0.00 0.00 100 1016.4
20260507075016 70 248 0.0 0.9 0.00 0.00 0.00 100 1016.5
20260507074526 70 248 0.0 0.9 0.00 0.00 0.00 100 1016.5
20260507074014 70 248 0.0 0.0 0.00 0.00 0.00 100 1016.6
20260507073515 70 248 0.0 0.9 0.00 0.00 0.00 100 1016.5
20260507073014 71 248 0.0 1.7 0.00 0.00 0.00 100 1016.7
20260507072513 71 248 0.0 0.0 0.00 0.00 0.00 100 1016.7
20260507072011 71 248 0.0 0.0 0.00 0.00 0.00 100 1016.7
20260507071512 71 248 0.0 0.0 0.00 0.00 0.00 100 1016.8
20260507071011 71 248 0.0 0.9 0.00 0.00 0.00 100 1016.8
20260507070511 71 248 0.0 1.7 0.00 0.00 0.00 100 1016.8
20260507070012 71 248 0.0 1.7 0.00 0.00 0.00 100 1017.0
20260507065513 72 248 0.0 1.7 0.00 0.00 0.00 100 1017.1
20260507065107 72 248 0.0 1.7 0.00 0.00 0.00 100 1017.3
20260507064506 72 248 0.0 0.9 0.00 0.00 0.00 100 1017.4
20260507064009 72 248 0.0 0.9 0.00 0.00 0.00 100 1017.4
20260507063505 72 248 0.0 1.7 0.00 0.00 0.00 100 1017.4
20260507063004 73 248 0.0 3.5 0.00 0.00 0.00 100 1017.4
20260507062502 73 248 0.0 3.5 0.00 0.00 0.00 100 1017.4
20260507062002 73 231 0.9 4.3 0.00 0.00 0.00 100 1017.4
20260507061601 74 242 0.9 3.5 0.00 0.00 0.00 100 1017.3
20260507061102 74 242 0.0 3.5 0.00 0.00 0.00 100 1017.3
20260507060558 75 224 0.0 4.3 0.00 0.00 0.00 100 1017.4
20260507060057 75 223 0.0 2.6 0.00 0.00 0.00 100 1017.5
20260507055555 76 205 0.0 2.6 0.00 0.00 0.00 100 1017.6
20260507055053 76 205 0.9 6.1 0.00 0.00 0.00 100 1017.6
20260507054556 76 161 0.9 6.1 0.00 0.00 0.00 100 1017.6
20260507054052 77 182 0.9 4.3 0.00 0.00 0.00 100 1017.7
20260507053552 77 192 1.7 7.0 0.00 0.00 0.00 100 1017.7
20260507053050 77 162 0.9 7.0 0.00 0.00 0.00 100 1017.9
20260507052553 77 174 0.9 8.7 0.00 0.00 0.00 100 1017.9
20260507052051 77 169 4.3 8.7 0.00 0.00 0.00 100 1017.8
20260507051551 77 140 3.5 8.7 0.00 0.00 0.00 100 1017.8
20260507051050 77 142 3.5 9.6 0.00 0.00 0.00 100 1017.8
20260507050551 77 159 3.5 9.6 0.00 0.00 0.00 100 1017.8
20260507050055 77 160 3.5 9.6 0.00 0.00 0.00 100 1017.8
20260507045549 77 135 5.2 9.6 0.00 0.00 0.00 100 1017.8
20260507045050 77 135 2.6 11.3 0.00 0.00 0.00 100 1017.9
20260507044551 77 138 6.1 11.3 0.00 0.00 0.00 100 1017.7
20260507044048 77 146 2.6 10.4 0.00 0.00 0.00 100 1017.8
20260507043547 77 134 3.5 7.0 0.00 0.00 0.00 100 1017.8
20260507043049 77 133 2.6 7.8 0.00 0.00 0.00 100 1017.8
20260507042547 77 101 2.6 7.8 0.00 0.00 0.00 100 1017.9
20260507042050 77 150 2.6 7.8 0.00 0.00 0.00 100 1017.9
20260507041548 77 139 1.7 8.7 0.00 0.00 0.00 100 1017.9
20260507041049 77 104 2.6 8.7 0.00 0.00 0.00 100 1017.9
20260507040547 77 161 3.5 7.8 0.00 0.00 0.00 100 1018.1
20260507040045 77 158 1.7 9.6 0.00 0.00 0.00 100 1018.0
20260507035544 77 145 4.3 7.8 0.00 0.00 0.00 100 1017.9
20260507035043 77 150 2.6 7.0 0.00 0.00 0.00 100 1017.8
20260507034557 77 134 2.6 7.0 0.00 0.00 0.00 100 1017.8
20260507034042 77 127 3.5 8.7 0.00 0.00 0.00 100 1017.8
20260507033542 77 155 2.6 8.7 0.00 0.00 0.00 100 1017.7
20260507033100 77 136 2.6 8.7 0.00 0.00 0.00 100 1017.8
20260507032544 77 117 3.5 9.6 0.00 0.00 0.00 100 1017.7
20260507032043 77 115 4.3 9.6 0.00 0.00 0.00 100 1017.7
20260507031541 77 146 2.6 8.7 0.00 0.00 0.00 100 1017.9
20260507031144 77 140 2.6 8.7 0.00 0.00 0.00 100 1018.0
20260507030545 77 126 4.3 8.7 0.00 0.00 0.00 100 1017.9
20260507030041 77 140 3.5 8.7 0.00 0.00 0.00 100 1017.9
20260507025540 77 112 3.5 8.7 0.00 0.00 0.00 100 1017.8
20260507025041 78 144 2.6 7.8 0.00 0.00 0.00 100 1017.8
20260507024551 78 118 2.6 10.4 0.00 0.00 0.00 100 1018.0
20260507024043 78 114 3.5 10.4 0.00 0.00 0.00 100 1018.0
20260507023545 78 120 2.6 7.8 0.00 0.00 0.00 100 1018.1
20260507023039 78 113 3.5 7.8 0.00 0.00 0.00 100 1017.9
20260507022539 78 96 3.5 7.8 0.00 0.00 0.00 100 1018.1
20260507022039 78 136 3.5 7.8 0.00 0.00 0.00 100 1018.2
20260507021539 78 142 2.6 7.8 0.00 0.00 0.00 100 1018.2
20260507021041 78 115 3.5 8.7 0.00 0.00 0.00 100 1018.2
20260507020538 78 139 3.5 8.7 0.00 0.00 0.00 100 1018.1
20260507020039 78 144 3.5 7.8 0.00 0.00 0.00 100 1018.1
20260507015537 78 130 3.5 8.7 0.00 0.00 0.00 100 1018.0
20260507015039 78 145 4.3 8.7 0.00 0.00 0.00 100 1018.1
20260507014538 78 135 2.6 7.8 0.00 0.00 0.00 100 1018.0
20260507014038 78 137 3.5 7.8 0.00 0.00 0.00 100 1018.0
20260507013640 78 141 3.5 7.8 0.00 0.00 0.00 100 1018.0
20260507013039 78 161 3.5 7.8 0.00 0.00 0.00 100 1018.0
20260507012537 78 93 2.6 8.7 0.00 0.00 0.00 100 1018.1
20260507012037 78 121 2.6 8.7 0.00 0.00 0.00 100 1018.0
20260507011539 78 110 1.7 7.0 0.00 0.00 0.00 100 1017.9
20260507011035 78 153 4.3 7.0 0.00 0.00 0.00 100 1017.9
20260507010535 78 142 2.6 7.0 0.00 0.00 0.00 100 1017.9
20260507010039 78 137 2.6 7.8 0.00 0.00 0.00 100 1017.9
20260507005536 78 142 3.5 7.8 0.00 0.00 0.00 100 1017.9
20260507005035 78 134 3.5 7.0 0.00 0.00 0.00 100 1017.8
20260507004535 78 130 3.5 7.8 0.00 0.00 0.00 100 1017.8
20260507004035 79 148 3.5 7.8 0.00 0.00 0.00 100 1017.8
20260507003535 79 120 3.5 7.0 0.00 0.00 0.00 100 1017.7
20260507003035 79 159 2.6 7.8 0.00 0.00 0.00 100 1017.7
20260507002534 79 130 2.6 7.8 0.00 0.00 0.00 100 1017.6
20260507002034 79 136 3.5 7.8 0.00 0.00 0.00 100 1017.6
20260507001549 79 167 3.5 7.8 0.00 0.00 0.00 100 1017.7
20260507001038 79 140 3.5 9.6 0.00 0.00 0.00 100 1017.7
20260507000533 79 159 4.3 9.6 0.00 0.00 0.00 100 1017.6
20260507000033 79 124 2.6 7.8 0.00 0.00 0.00 100 1017.5
20260506235534 79 135 3.5 8.7 0.00 0.00 0.00 100 1017.6
20260506235036 79 150 4.3 11.3 0.00 0.00 0.00 100 1017.6
20260506234546 79 141 4.3 8.7 0.00 0.00 0.00 100 1017.5
20260506234033 80 128 3.5 8.7 0.00 0.00 0.00 100 1017.7
20260506233533 80 109 3.5 8.7 0.00 0.00 0.00 100 1017.6
20260506233032 80 156 4.3 8.7 0.00 0.00 0.00 100 1017.7
20260506232533 80 139 3.5 8.7 0.00 0.00 0.00 100 1017.6
20260506232048 80 159 4.3 8.7 0.00 0.00 0.00 100 1017.7
20260506231534 80 134 5.2 9.6 0.00 0.00 0.00 100 1017.7
20260506231029 81 116 3.5 9.6 0.00 0.00 0.00 100 1017.8
20260506230532 81 111 2.6 8.7 0.00 0.00 0.00 100 1017.8
20260506230028 81 134 3.5 10.4 0.00 0.00 0.00 100 1017.7
20260506225531 81 150 4.3 9.6 0.00 0.00 0.00 100 1017.7
20260506225028 81 116 2.6 8.7 0.00 0.00 0.00 100 1017.7